FW7361 Weather Reports


time (UTC)temp
F
wind
direction
speed
knots
gust
knots
rain 1hr
in
rain 24hr
in
rain mn
in
humidity
%
barometer
mb
20260504214557 58 360 9.6 17.4 0.00 0.00 0.00 42 1008.9
20260504213056 57 360 8.7 16.5 0.00 0.00 0.00 43 1009.3
20260504211649 57 360 8.7 14.8 0.00 0.00 0.00 42 1009.6
20260504210058 57 360 7.0 13.9 0.00 0.00 0.00 42 1009.7
20260504204558 57 360 9.6 14.8 0.00 0.00 0.00 44 1009.9
20260504203108 57 360 6.1 11.3 0.00 0.00 0.00 43 1010.1
20260504201611 56 360 4.3 13.0 0.00 0.00 0.00 44 1009.9
20260504200057 56 360 8.7 14.8 0.00 0.00 0.00 43 1010.1
20260504194558 57 360 10.4 13.9 0.00 0.00 0.00 45 1010.3
20260504193107 56 360 4.3 12.2 0.00 0.00 0.00 46 1010.6
20260504191610 54 360 5.2 11.3 0.00 0.00 0.00 44 1011.0
20260504190106 55 360 10.4 20.0 0.00 0.00 0.00 44 1011.0
20260504184556 55 360 7.8 15.6 0.00 0.00 0.00 45 1011.0
20260504183056 53 360 9.6 15.6 0.00 0.00 0.00 46 1011.4
20260504181603 54 360 7.0 15.6 0.00 0.00 0.00 44 1011.4
20260504180057 53 360 9.6 15.6 0.00 0.00 0.00 45 1011.6
20260504174554 53 360 9.6 15.6 0.00 0.00 0.00 46 1011.7
20260504173057 52 360 7.8 15.6 0.00 0.00 0.00 46 1011.8
20260504171556 51 360 10.4 18.2 0.00 0.00 0.00 47 1011.9
20260504081608 47 360 1.7 5.2 0.00 0.00 0.00 56 1008.0
20260504044556 50 360 1.7 2.6 0.00 0.00 0.00 53 1009.4
20260504043101 50 0 0.0 1.7 0.00 0.00 0.00 52 1009.5
20260504041554 50 0 0.0 2.6 0.00 0.00 0.00 51 1009.6
20260504040132 51 0 0.0 1.7 0.00 0.00 0.00 50 1009.8
20260504034601 52 360 0.9 5.2 0.00 0.00 0.00 48 1009.8
20260504033058 54 360 1.7 3.5 0.00 0.00 0.00 47 1009.6
20260504031606 55 69 3.5 5.2 0.00 0.00 0.00 45 1009.5
20260504030058 55 360 2.6 4.3 0.00 0.00 0.00 42 1009.5
20260504024603 54 360 2.6 4.3 0.00 0.00 0.00 44 1009.6
20260504023058 56 360 2.6 3.5 0.00 0.00 0.00 41 1009.4
20260504021600 57 360 2.6 4.3 0.00 0.00 0.00 40 1009.4
20260504020109 56 360 2.6 4.3 0.00 0.00 0.00 42 1009.2
20260504014556 59 360 3.5 5.2 0.00 0.00 0.00 41 1009.3
20260504013053 62 360 4.3 7.8 0.00 0.00 0.00 33 1009.3
20260504011556 63 360 8.7 11.3 0.00 0.00 0.00 32 1009.2
20260504010100 65 360 5.2 11.3 0.00 0.00 0.00 30 1009.2
20260504004555 66 360 5.2 10.4 0.00 0.00 0.00 29 1009.4
20260504003054 66 360 7.0 13.9 0.00 0.00 0.00 29 1009.4
20260504001556 68 360 9.6 13.9 0.00 0.00 0.00 27 1009.5
20260504000101 68 360 8.7 13.9 0.00 0.00 0.00 26 1009.7
20260503234624 67 360 8.7 13.9 0.00 0.00 0.00 27 1009.9
20260503233058 68 360 7.0 14.8 0.00 0.00 0.00 27 1009.9
20260503231552 68 360 6.1 13.0 0.00 0.00 0.00 24 1010.0
20260503230056 66 360 12.2 17.4 0.00 0.00 0.00 24 1010.0
20260503224553 66 360 13.0 17.4 0.00 0.00 0.00 25 1010.1
20260503223056 67 360 2.6 12.2 0.00 0.00 0.00 25 1010.1
20260503221559 65 360 2.6 12.2 0.00 0.00 0.00 24 1010.5
20260503220055 66 360 10.4 16.5 0.00 0.00 0.00 23 1010.9